Date String (YYYY-MM-DD hh:mm:ss) UTC,Instrument flags,Ambient pressure (hPa),Sample flow (lpm),Bypass flow (lpm),Sample temperature (°C),Ambient temperature (°C),ASC tube jacket temperature (°C),LED temperature (°C),Box temperature (°C),Sample RH (%),Span deviation,Mass concentration (μg/m³),Mass concentration (μg/m³),Mass concentration (μg/m³)
DateTimeUTC,F1_M11,P_M11,Q1_M11,Q2_M11,T1_M11,T2_M11,T3_M11,T4_M11,T5_M11,U1_M11,ZSPAN_M11,X0_M11,X2_M11,X1_M11
2022-01-18 21:00:00,,0818.9,5.00,0.00,22.7,22.1,00.0,31.7,24.6,03.6,0000.0,0000.66,0000.42,0000.36
2022-01-18 21:01:00,,0818.9,5.01,0.00,22.8,22.1,00.0,31.7,24.6,03.5,0000.0,0000.63,0000.41,0000.36
2022-01-18 21:02:00,,0818.9,5.00,0.00,22.8,22.1,00.0,31.7,24.6,03.7,0000.0,0001.04,0000.42,0000.35
2022-01-18 21:03:00,,0818.9,4.99,0.00,22.8,22.1,00.0,31.7,24.6,03.7,0000.0,0001.00,0000.41,0000.35
2022-01-18 21:04:00,,0818.8,5.01,0.00,22.8,22.1,00.0,31.7,24.6,03.6,0000.0,0000.91,0000.40,0000.35
2022-01-18 21:05:00,,0818.8,4.99,0.00,22.8,22.1,00.0,31.8,24.6,03.7,0000.0,0000.90,0000.40,0000.35
2022-01-18 21:06:00,,0818.8,5.01,0.00,22.8,22.1,00.0,31.8,24.6,03.6,0000.0,0000.96,0000.40,0000.34
2022-01-18 21:07:00,,0818.8,5.00,0.00,22.8,22.1,00.0,31.8,24.6,03.5,0000.0,0000.99,0000.40,0000.34
2022-01-18 21:08:00,,0818.9,5.00,0.00,22.8,22.1,00.0,31.8,24.6,03.4,0000.0,0001.01,0000.40,0000.33
2022-01-18 21:09:00,,0818.8,5.00,0.00,22.8,22.1,00.0,31.8,24.6,03.6,0000.0,0001.06,0000.43,0000.33
2022-01-18 21:10:00,,0818.8,4.99,0.00,22.8,22.1,00.0,31.8,24.6,03.6,0000.0,0001.07,0000.42,0000.33
2022-01-18 21:11:00,,0818.8,5.01,0.00,22.9,22.1,00.0,31.8,24.6,03.5,0000.0,0001.07,0000.42,0000.32
2022-01-18 21:12:00,,0818.8,5.00,0.00,22.9,22.1,00.0,31.8,24.7,03.5,0000.0,0001.01,0000.42,0000.33
2022-01-18 21:13:00,,0818.8,5.00,0.00,22.9,22.1,00.0,31.8,24.6,03.4,0000.0,0000.78,0000.42,0000.33
2022-01-18 21:14:00,,0818.8,5.00,0.00,22.9,22.1,00.0,31.8,24.6,03.4,0000.0,0000.91,0000.43,0000.33
2022-01-18 21:15:00,,0818.8,5.01,0.00,22.9,22.2,00.0,31.8,24.7,03.6,0000.0,0000.96,0000.45,0000.33
2022-01-18 21:16:00,,0818.8,4.99,0.00,22.9,22.1,00.0,31.8,24.7,04.2,0000.0,0000.97,0000.45,0000.34
2022-01-18 21:17:00,,0818.8,5.01,0.00,22.9,22.1,00.0,31.8,24.6,04.0,0000.0,0000.89,0000.45,0000.34
2022-01-18 21:18:00,,0818.8,4.98,0.00,22.9,22.2,00.0,31.8,24.7,03.5,0000.0,0000.92,0000.47,0000.34
2022-01-18 21:19:00,,0818.8,5.00,0.00,22.9,22.2,00.0,31.9,24.7,03.8,0000.0,0001.09,0000.48,0000.34
2022-01-18 21:20:00,,0818.8,5.01,0.00,22.9,22.2,00.0,31.9,24.7,03.7,0000.0,0001.65,0000.47,0000.35
2022-01-18 21:21:00,,0818.8,4.98,0.00,22.9,22.2,00.0,31.9,24.7,03.9,0000.0,0001.62,0000.46,0000.35
2022-01-18 21:22:00,,0818.8,5.01,0.00,22.9,22.2,00.0,31.9,24.7,04.1,0000.0,0001.61,0000.45,0000.36
2022-01-18 21:23:00,,0818.8,5.00,0.00,22.9,22.2,00.0,31.9,24.7,04.1,0000.0,0001.61,0000.45,0000.35
2022-01-18 21:24:00,,0818.8,5.00,0.00,22.9,22.2,00.0,31.9,24.7,04.2,0000.0,0001.51,0000.44,0000.36
2022-01-18 21:25:00,,0818.8,5.00,0.00,22.9,22.2,00.0,31.9,24.7,04.3,0000.0,0001.33,0000.43,0000.36
2022-01-18 21:26:00,,0818.8,5.01,0.00,22.9,22.1,00.0,31.9,24.7,04.3,0000.0,0001.30,0000.42,0000.36
2022-01-18 21:27:00,,0818.8,5.00,0.00,22.9,22.2,00.0,31.9,24.7,04.3,0000.0,0001.28,0000.41,0000.35
2022-01-18 21:28:00,,0818.8,5.00,0.00,22.9,22.2,00.0,31.9,24.7,04.3,0000.0,0001.33,0000.42,0000.35
2022-01-18 21:29:00,,0818.8,4.99,0.00,22.9,22.2,00.0,31.9,24.7,03.9,0000.0,0001.27,0000.40,0000.35
2022-01-18 21:30:00,,0818.8,5.01,0.00,22.9,22.2,00.0,31.9,24.7,03.7,0000.0,0001.06,0000.41,0000.36
2022-01-18 21:31:00,,0818.7,5.00,0.00,22.9,22.2,00.0,31.9,24.7,03.6,0000.0,0000.54,0000.42,0000.37
2022-01-18 21:32:00,,0818.8,4.99,0.00,22.9,22.2,00.0,31.9,24.7,03.4,0000.0,0000.61,0000.46,0000.38
2022-01-18 21:33:00,,0818.7,5.00,0.00,22.9,22.1,00.0,31.9,24.7,03.5,0000.0,0000.88,0000.50,0000.38
2022-01-18 21:34:00,,0818.8,4.98,0.00,22.9,22.1,00.0,31.9,24.6,03.8,0000.0,0001.34,0000.53,0000.39
2022-01-18 21:35:00,,0818.7,5.02,0.00,22.9,22.1,00.0,31.9,24.7,03.8,0000.0,0001.34,0000.53,0000.39
2022-01-18 21:36:00,,0818.7,4.99,0.00,22.9,22.1,00.0,31.9,24.7,03.7,0000.0,0001.35,0000.54,0000.39
2022-01-18 21:37:00,,0818.7,5.01,0.00,22.9,22.1,00.0,31.9,24.7,03.5,0000.0,0001.34,0000.54,0000.39
2022-01-18 21:38:00,,0818.7,5.00,0.00,22.9,22.1,00.0,31.9,24.7,03.4,0000.0,0001.36,0000.55,0000.40
2022-01-18 21:39:00,,0818.8,5.00,0.00,22.9,22.1,00.0,31.9,24.7,03.8,0000.0,0001.34,0000.54,0000.40
2022-01-18 21:40:00,,0818.7,5.01,0.00,22.9,22.2,00.0,31.9,24.7,03.8,0000.0,0001.34,0000.55,0000.40
2022-01-18 21:41:00,,0818.7,4.98,0.00,23.0,22.2,00.0,32.0,24.7,03.9,0000.0,0001.35,0000.54,0000.40
2022-01-18 21:42:00,,0818.7,5.01,0.00,23.0,22.2,00.0,32.0,24.7,04.0,0000.0,0001.32,0000.52,0000.38
2022-01-18 21:43:00,,0818.7,4.99,0.00,23.0,22.2,00.0,32.0,24.7,03.8,0000.0,0001.29,0000.49,0000.37
2022-01-18 21:44:00,,0818.7,5.02,0.00,23.0,22.2,00.0,32.0,24.7,03.7,0000.0,0001.13,0000.46,0000.37
2022-01-18 21:45:00,,0818.8,4.99,0.00,23.0,22.1,00.0,32.0,24.8,03.8,0000.0,0001.25,0000.43,0000.36
2022-01-18 21:46:00,,0818.8,5.01,0.00,23.0,22.2,00.0,32.0,24.8,03.9,0000.0,0001.25,0000.43,0000.36
2022-01-18 21:47:00,,0818.7,4.99,0.00,23.0,22.2,00.0,32.0,24.8,03.9,0000.0,0001.26,0000.44,0000.36
2022-01-18 21:48:00,,0818.7,5.00,0.00,23.0,22.1,00.0,32.0,24.8,04.0,0000.0,0001.26,0000.44,0000.36
2022-01-18 21:49:00,,0818.7,5.00,0.00,23.0,22.2,00.0,32.0,24.8,04.1,0000.0,0001.25,0000.43,0000.36
2022-01-18 21:50:00,,0818.8,5.02,0.00,23.0,22.2,00.0,32.0,24.8,03.8,0000.0,0001.22,0000.41,0000.35
2022-01-18 21:51:00,,0818.7,4.99,0.00,23.0,22.2,00.0,32.0,24.8,03.8,0000.0,0001.20,0000.41,0000.35
2022-01-18 21:52:00,,0818.7,5.01,0.00,23.0,22.2,00.0,32.0,24.7,03.8,0000.0,0001.18,0000.39,0000.34
2022-01-18 21:53:00,,0818.8,4.99,0.00,23.0,22.2,00.0,32.0,24.7,03.8,0000.0,0001.17,0000.39,0000.34
2022-01-18 21:54:00,,0818.8,5.02,0.00,23.0,22.2,00.0,32.0,24.7,03.9,0000.0,0001.17,0000.39,0000.34
2022-01-18 21:55:00,,0818.8,4.99,0.00,23.0,22.2,00.0,32.0,24.7,03.5,0000.0,0001.16,0000.38,0000.33
2022-01-18 21:56:00,,0818.8,4.99,0.00,22.9,22.2,00.0,32.0,24.7,03.4,0000.0,0000.49,0000.37,0000.33
2022-01-18 21:57:00,,0818.8,5.01,0.00,22.9,22.2,00.0,32.0,24.7,03.6,0000.0,0000.48,0000.37,0000.32
2022-01-18 21:58:00,,0818.8,4.98,0.00,22.9,22.2,00.0,32.0,24.7,03.6,0000.0,0000.48,0000.36,0000.31
2022-01-18 21:59:00,,0818.8,5.01,0.00,22.9,22.2,00.0,32.0,24.7,03.6,0000.0,0000.53,0000.38,0000.31
